Location: Moscow
(55.7500°N, 37.5830°E)
Time: 17:12:36
(UTC+03:00)

ISS - Pass Details

Date: 18 March 2026
Orbit: 416 x 425 km, 51.6° (Epoch: 19 April)

Event Time Altitude Azimuth Distance (km) Brightness Sun altitude
Rises 19:27:19 0° 243° (WSW) 2,385 1.0 -7.6°
Reaches altitude 10° 19:29:31 10° 234° (SW) 1,519 -0.2 -7.9°
Maximum altitude 19:32:39 35° 167° (SSE) 713 -2.8 -8.3°
Enters shadow 19:35:26 12° 103° (ESE) 1,382 -1.8 -8.7°
